Airfield :







YOU CAN JOIN US ON...

 
LOGIN :

Register | Disclaimer

   EN    FR    IT 

 









Legend :    VFR   Marginal VFR   IFR   Intensive IFR   Very Intensive IFR
Visi :
Ceiling :
>= 8 km
>= 3000ft
5 to 8 km
1000 to 3000 ft
1500m to 5 km
500 to 1000 ft
800 to 1500m
200 to 500 ft
< 800m
< 200 ft
Symbols :   Thunderstorms  Fog  Heavy snow  Heavy precipitations  Wind > 20 kt






- Airport Elevation : 732 ft


KMVL - Morrisville Stowe State

CURRENT METAR :
  • 161854Z AUTO 17012G17KT 10SM CLR 14/04 A2980 RMK AO2 SLP095 T01440039

EXPIRED METARs :
  • 161754Z AUTO 16010G19KT 10SM CLR 14/03 A2982 RMK AO2 PK WND 16026/1724 SLP103 T01440033 10144 20000 56026
  • 161654Z AUTO 15015G23KT 10SM CLR 14/03 A2983 RMK AO2 SLP108 T01440033

TAF N/A



MET'MAP, your aeronautical weather chart ! - Copyright ORBIFLY December 2007 - Disclaimer

ORBIFLY MET'MAP TEAM :

Programming & Development : Alexandra Zaïnal
Concept & Development : Baudouin d'Aumeries
Co-Development & Prog : Marc-Olivier Méhu
Technical & hardware support : Manuel Goepfert

Contact : metmap@orbifly.com




SOURCES & CREDITS :

   NOAA